Simultaneous Nadir Overpasses (SNOs) Predictions

Prediction of SNOs between GOES-17 and METOP-C Satellite Orbit:

Table of predicted SNOs for the next 14.0 days since TLE Epoch: 2/14/2025
Index Date Time (GOES-17) GOES-17 Lat,Lon METOP-C Lat,Lon Distance(km) Time Diff (sec)
1 02/15/2025 04:36:31 0.01,-104.40 -0.48,-106.62 253.49 80
2 02/16/2025 04:18:31 0.01,-104.29 0.60,-101.62 303.93 80
3 02/17/2025 16:34:40 -0.01,-104.12 0.47,-106.17 233.29 80
4 02/18/2025 16:16:40 -0.01,-104.01 -0.62,-101.16 324.28 80
5 02/20/2025 04:32:59 0.01,-103.85 -0.43,-105.75 217.54 80
6 02/21/2025 04:14:58 0.01,-103.73 0.67,-100.75 339.70 80
7 02/22/2025 16:31:08 -0.01,-103.56 0.38,-105.30 198.09 80
8 02/23/2025 16:13:07 -0.01,-103.45 -0.72,-100.30 359.17 80
9 02/25/2025 04:32:05 0.01,-103.28 -0.37,-104.88 182.76 80
10 02/26/2025 04:08:45 0.01,-103.17 0.73, -99.88 374.41 80
11 02/27/2025 16:27:34 -0.01,-102.99 0.30,-104.43 163.42 80
12 02/28/2025 16:09:34 -0.02,-102.88 -0.81, -99.43 394.07 80
